Погода в Аркосе -де-ла-Фронтере

Испания     36°45′05″N   5°48′41″W
темп.,
°C
ветер,
м/с
пор.,
м/с
влажн.,
%
обл.,
%
осадки,
мм/ч
давл.,
гПа
погр.,
м
7 мая, пт
пт723:00+16ююз11613 0.0 101811
02:00+15юв11621 0.0 101811
05:00+15в11600 0.0 101711
08:00+15в11580 0.0 101811
11:00+23сз11390 0.0 1018423
14:00+28зсз33290 0.0 10171742
17:00+30з442313 0.0 10152479
20:00+25з46386 0.0 1016309
8 мая, сб
сб823:00+18ююв1149100 0.0 101711
02:00+16ююв11599 0.0 101611
05:00+15в116822 0.0 101511
08:00+15вюв116997 0.0 101411
11:00+23юз124299 0.0 1014565
14:00+30ююз5627100 0.0 10121695
17:00+28ююз6630100 0.0 10101408
20:00+23з44500 0.3 1009287
9 мая, вс
вс923:00+15юз3480100 0.0 101276
02:00+14ю38950 0.2 1013197
05:00+13ююв2296100 0.0 101143
08:00+13ю239566 0.0 101157
11:00+19ююз81059100 0.0 10111280
14:00+18ююз101476100 0.7 10111334
17:00+21зюз8105424 1.3 10101605
20:00+18зюз78542 1.3 10111011
10 мая, пн
пн1023:00+12ю34914 0.0 101462
02:00+11ю22930 0.0 101426
05:00+10ююв228912 0.0 101412
08:00+11юв118430 0.0 101412
11:00+16зюз357038 0.8 1014749
14:00+20з794510 2.0 10141918
17:00+19з9105035 0.4 10141923
20:00+17з79555 0.5 10151178
11 мая, вт
вт1123:00+12зюз498822 1.1 1018205
02:00+10зюз118875 1.4 101922
05:00+9сз11880 0.0 102011
08:00+9ссв12910 0.0 102228
11:00+15ссз46560 0.0 10231340
14:00+19сз56335 0.0 10222111
17:00+21зсз67300 0.0 10212257
20:00+17зсз66480 0.0 1022873